Location: Launay
(47.2429°N, 1.5727°E)
Time: 23:50:33
(UTC+00:00)

Cosmos 2366 rocket - Pass Details

Date: 19 May 2025
Orbit: 954 x 996 km, 82.9° (Epoch: 18 June)

Event Time Altitude Azimuth Distance (km) Brightness Sun altitude
Rises 21:07:42 0° 352° (N) 3,728 8.1 -13.5°
Reaches altitude 10° 21:10:16 10° 355° (N) 2,774 7.3 -13.8°
Maximum altitude 21:16:37 71° 79° (E) 1,051 4.1 -14.4°
Enters shadow 21:21:11 20° 161° (SSE) 2,118 5.2 -14.9°
